DELTA 1 DEB, 10630

Orbit data source: Space-Track

DELTA 1 DEB, 10630 is space debris in LEO originally from a launch on Thu, 14 Jul 1977 UTC launched from the Air Force Eastern Test Range (AFETR). Debris objects in space refer to the collection of defunct objects orbiting the Earth. Examples of debris include non-operational satellites, rocket bodies, and fragments generated from explosions, collisions, or faulty payload assembly.

Loading next visibility...
Identifier
10630, 1977-065EZ
Orbit
LEO
Country
Flag of USUS
Related business
Manufacturer
Unknown
Mission
Spacecraft
Bus & Motor
Unknown
Mass
Unknown
Launch date (UTC)
1977-07-14 (49 years ago)
Launch vehicle
Unknown
Launch site
Air Force Eastern Test Range (AFETR)
Object type
Payload
Rocket body
Debris
Shape & HBR
Unknown shape, 0.1 m
Radar Cross Section
Medium (>0.1 m² and <1 m²)

Expand to show TLE details & history
Last TLE update: 2 days ago

TLE from 2 days ago
0 DELTA 1 DEB
1 10630U 77065EZ  26171.22675507  .00002319  00000-0  26581-2 0  9995
2 10630  29.2294 151.7048 0776538  14.3315 347.8001 12.81022143507851
Epoch: 2026-06-20T05:26Z
TLE epoch observation values (Epoch: 2026-06-20T05:26:31.638Z)
Latitude
-0.00003°
Longitude
161.62851°
Altitude
752.724 km
Speed
7.757 km/s
True Right ascension
10h 06m 49s
True Declination
0° 00' 00"
Sunlit
Object was in daylight at epoch
Visualization orbit readout
Latitude
Unknown
Longitude
Unknown
Altitude
Unknown
Speed
Unknown
Apparent Right ascension
Unknown
Apparent Declination
Unknown
Sunlit
N/A
Visualization observer readout
Local Sidereal Time
04:00:27
Azimuth
Unknown
Elevation
Unknown
Doppler factor
Unknown
Orbital elements
Apogee altitude
1,940.495 km
Perigee altitude
741.643 km
Semi-major axis
7,719.206 km
Eccentricity
0.07765
Inclination
29.2294°
RAAN
151.7048°
Arg. of periapsis
14.3315°
True anomaly
345.72393°
Mean anomaly
347.8001°
Eccentric anomaly
346.78281°
Mean motion
3.20025 °/min
Orbital period
112.49 mins
BSTAR
0.0026581
Loading maneuver chart data...
Computing Atmospheric mass density...

Documentation

Showing up to 5 results
|